Regional Weather Roundup
Issued by NWS

Home | Current Version | Previous Version | Text Only | Print | Product List | Glossary Off
Versions: 1 2 3 4 5 6 7 8 9 10 11 12 13 14 15 16 17 18 19 20 21 22 23 24 25 26 27 28 29 30 31 32 33 34 35 36 37 38 39 40 41 42 43 44 45 46 47 48 49 50

000
ASUS43 KFSD 280402
RWRSD

WEATHER ROUNDUP FOR SOUTH DAKOTA
NATIONAL WEATHER SERVICE SIOUX FALLS SD
1100 PM CDT MON APR 27 2015

NOTE: "FAIR" INDICATES FEW OR NO CLOUDS BELOW 12,000 FEET WITH NO
SIGNIFICANT WEATHER AND/OR OBSTRUCTIONS TO VISIBILITY.


SDZ001>005-009-010-012>017-280500-
NORTHWEST AND NORTH CENTRAL SOUTH DAKOTA

CITY           SKY/WX    TMP DP  RH WIND       PRES   REMARKS
BUFFALO          N/A     44  37  76 W3        30.27S
FAITH            N/A     45  38  76 NW9       30.32S
MOBRIDGE       CLOUDY    47  44  90 N6        30.28F
$$

SDZ012>016-024>037-041>051-057-063-072>074-280500-
SOUTHWEST AND SOUTH CENTRAL SOUTH DAKOTA

CITY           SKY/WX    TMP DP  RH WIND       PRES   REMARKS
RAPID CTY ARPT CLOUDY    44  38  79 N8        30.34S
PIERRE         MOCLDY    48  42  80 N13       30.29R
CUSTER         FOG       40  38  93 E3        30.33R VSB 1/4
ELLSWORTH AFB  CLOUDY    44  37  76 N8        30.34S
PHILIP         CLOUDY    46  42  86 CALM      30.33R
PINE RIDGE     PTCLDY    43  38  82 NE6       30.34R
WINNER         FAIR      48  39  71 NW8       30.30R
$$

SDZ004>011-016>023-039-040-280500-
NORTHEAST SOUTH DAKOTA

CITY           SKY/WX    TMP DP  RH WIND       PRES   REMARKS
ABERDEEN       CLOUDY    52  42  69 N18       30.26R
WATERTOWN      CLEAR     50  26  39 CALM      30.18R
BROOKINGS      MOCLDY    52  28  40 CALM      30.19S
SISSETON         N/A     54  42  64 N14       30.20R
$$

SDZ017-020-022-023-036>040-048>070-280500-
SOUTHEAST SOUTH DAKOTA

CITY           SKY/WX    TMP DP  RH WIND       PRES   REMARKS
SIOUX FALLS    MOCLDY    49  30  48 CALM      30.18R
HURON          PTCLDY    51  41  68 NW12      30.22R
MITCHELL       PTCLDY    56  43  61 NW15      30.21R
YANKTON        PTCLDY    50  30  46 NW7       30.18S
$$

ABBREVIATIONS USED IN REMARKS
   TC - TEMPERATURE IN CELSIUS
  WCI - WIND CHILL INDEX
   HX - HEAT INDEX
  VSB - VISIBILITY



USA.gov is the U.S. government's official web portal to all federal, state and local government web resources and services.